#timestamp,LO_Frequency,Hit,StdDev 
1681027215.2,286046999.9,N
1681027235.1,286047000.0,N
1681027236.0,286047000.0,N
1681027255.8,286047002.6,N
1681027275.6,286047000.5,N
1681027295.5,286046999.9,N
1681027315.3,286047000.2,N
1681027335.2,286046999.8,N
1681027355.9,286047002.6,N
1681027375.7,286047001.9,N
1681027395.6,286047002.8,N
1681027415.4,286047003.9,N
1681027435.2,286047003.6,N
1681027455.1,286047004.5,N
1681027456.0,286047004.5,N
1681027475.8,286047005.3,N
1681027495.7,286047003.2,N
1681027515.5,286047003.4,N
1681027535.3,286047004.1,N
1681027555.2,286047005.6,N
1681027575.0,286047005.7,N
1681027575.9,286047005.7,N
1681027595.8,286047003.0,N
1681027615.6,286047005.8,N
1681027635.4,286047005.7,N
1681027655.3,286047005.6,N
1681027675.1,286047004.1,N
1681027676.0,286047004.1,N
1681027695.8,286047001.7,N
1681027715.7,286047002.0,N
1681027735.5,286047003.9,N
1681027755.4,286047011.9,Y
1681027775.2,286046999.0,P
1681027795.0,286046999.9,N
1681027795.9,286046999.9,N
1681027815.8,286047002.7,N
1681027835.6,286047003.0,N
1681027855.4,286047005.7,Y
1681027875.3,286047003.8,P
1681027895.1,286047003.9,P
1681027915.9,286047000.8,N
1681027935.7,286046999.7,N
1681027955.5,286047002.0,N
1681027975.4,286047002.6,N
1681027995.2,286047003.1,N
1681028015.0,286047003.6,N
1681028015.9,286047003.6,N
1681028035.8,286047000.2,N
1681028055.6,286047001.6,N
1681028075.5,286047003.8,N
1681028095.3,286047005.6,Y
1681028115.1,286047002.1,P
1681028135.9,286047000.0,N
1681028155.7,286047002.7,N
1681028175.6,286047000.2,N
1681028195.4,286047000.4,N
1681028215.2,286047000.0,N
1681028235.1,286046998.5,N
1681028236.0,286046998.5,N
1681028255.8,286046998.9,N
1681028275.6,286047001.1,N
1681028295.5,286047000.8,N
1681028315.3,286047001.5,N
1681028335.2,286047004.4,Y
1681028355.9,286047004.3,P
1681028375.7,286047002.0,N
1681028395.6,286047002.5,N
1681028415.4,286047001.0,N
1681028435.2,286047000.3,N
1681028455.1,286047002.0,N
1681028456.0,286047002.0,N
1681028475.8,286047002.1,N
1681028495.7,286047002.2,N
1681028515.5,286047002.7,N
1681028535.3,286047001.2,N
1681028555.2,286047001.1,N
1681028575.0,286046998.1,N
1681028575.9,286046998.1,N
1681028595.8,286047002.6,N
1681028615.6,286047001.9,N
1681028635.4,286047003.0,N
1681028655.3,286047002.2,N
1681028675.1,286047001.8,N
1681028695.9,286047001.6,N
1681028715.7,286047004.3,Y
1681028735.5,286047004.0,P
1681028755.4,286047001.3,N
1681028775.2,286047005.4,P
1681028795.0,286047004.0,N
1681028795.9,286047004.0,N
1681028815.8,286047002.3,N
1681028835.6,286046999.8,N
1681028855.5,286047000.1,N
1681028875.3,286047000.7,N
1681028895.1,286047000.6,N
1681028915.9,286047001.2,N
1681028935.7,286046998.7,N
1681028955.5,286047001.2,N
1681028975.4,286047000.6,N
1681028995.2,286046999.8,N
1681029015.0,286047001.3,N
1681029016.0,286047001.3,N
1681029035.8,286047002.0,N
1681029055.6,286047000.4,N
1681029075.5,286047001.1,N
1681029095.3,286046998.9,N
1681029115.1,286047001.0,N
1681029135.9,286046996.6,N
1681029155.7,286046995.3,N
1681029175.5,286046995.6,N
1681029195.4,286046996.1,N
1681029215.2,286046995.5,N
1681029235.1,286046993.3,N
1681029236.0,286046993.3,N
1681029255.8,286046995.9,N
1681029275.6,286046993.9,N
1681029295.5,286046992.5,N
1681029315.3,286046992.2,N
1681029335.1,286046993.8,N
1681029355.9,286046994.2,N
1681029375.7,286046992.1,N
1681029395.6,286046994.0,N
1681029415.4,286046994.3,N
1681029435.2,286046993.4,N
1681029455.1,286046995.7,N
1681029456.0,286046995.7,N
1681029475.8,286046996.3,N
1681029495.6,286046997.9,N
1681029515.5,286046995.0,N
1681029535.3,286046995.2,N
1681029555.2,286046995.5,N
1681029575.9,286046995.5,N
1681029595.7,286046996.1,N
1681029615.6,286046993.6,N
1681029635.4,286046992.0,Y
1681029655.2,286046997.4,P
1681029675.1,286046996.8,P
1681029676.0,286046996.8,P
1681029695.8,286046997.6,Y
1681029715.7,286046999.9,P
1681029735.5,286047000.1,N
1681029755.3,286047001.3,N
1681029775.2,286047002.1,N
1681029795.0,286047002.6,N
1681029795.9,286047002.6,N
1681029815.8,286047003.3,N
1681029835.6,286047005.6,N
1681029855.4,286047004.7,N
1681029875.3,286047005.2,N
1681029895.1,286047007.1,N
1681029915.8,286047004.6,N
1681029935.7,286047005.4,N
1681029955.5,286047003.5,N
1681029975.4,286047003.1,N
1681029995.2,286047003.8,N
1681030015.0,286047003.0,N
1681030015.9,286047003.0,N
1681030035.8,286047005.1,N
1681030055.6,286047003.2,N
1681030075.4,286047003.3,N
1681030095.3,286047004.1,N
1681030115.1,286047003.2,N
1681030135.9,286047006.0,N
1681030155.7,286047005.5,N
1681030175.5,286047005.8,N
1681030195.4,286047004.3,N
1681030215.2,286047004.2,N
1681030235.0,286047003.8,N
1681030235.9,286047003.8,N
1681030255.8,286046999.8,N
1681030275.6,286047002.3,N
1681030295.5,286047000.2,N
1681030315.3,286046999.8,N
1681030335.1,286047000.9,N
1681030355.9,286047000.5,N
1681030375.7,286047000.6,N
1681030395.5,286046998.3,N
1681030415.4,286047000.9,N
1681030435.2,286047001.6,N
1681030455.1,286047001.8,N
1681030456.0,286047001.8,N
1681030475.8,286047003.8,N
1681030495.6,286047004.3,N
1681030515.5,286047003.8,N
1681030535.3,286047003.4,N
1681030555.1,286047004.1,N
1681030575.9,286047001.3,N
1681030595.7,286047003.4,N
1681030615.6,286047003.2,N
1681030635.4,286047003.6,N
1681030655.2,286047003.6,N
1681030675.1,286047002.0,N
1681030676.0,286047002.0,N
1681030695.8,286046999.8,N
1681030715.6,286047001.9,N
1681030735.5,286047000.2,N
1681030755.3,286047000.8,N
1681030775.2,286047001.1,N
1681030795.9,286047000.4,N
